Date String (YYYY-MM-DD hh:mm:ss) UTC,Instrument flags,Ambient pressure (hPa),Sample flow (lpm),Bypass flow (lpm),Sample temperature (°C),Ambient temperature (°C),ASC tube jacket temperature (°C),LED temperature (°C),Box temperature (°C),Sample RH (%),Span deviation,Mass concentration (μg/m³),Mass concentration (μg/m³),Mass concentration (μg/m³)
DateTimeUTC,F1_M11,P_M11,Q1_M11,Q2_M11,T1_M11,T2_M11,T3_M11,T4_M11,T5_M11,U1_M11,ZSPAN_M11,X0_M11,X2_M11,X1_M11
2022-06-30 06:00:00,,0830.7,5.00,0.00,29.2,28.0,00.0,38.1,31.1,33.4,0000.0,0012.46,0004.95,0003.74
2022-06-30 06:01:00,,0830.7,4.99,0.00,29.2,28.1,00.0,38.1,31.1,32.8,0000.0,0012.78,0005.01,0003.77
2022-06-30 06:02:00,,0830.7,5.00,0.00,29.2,28.1,00.0,38.1,31.2,32.0,0000.0,0012.98,0005.03,0003.81
2022-06-30 06:03:00,,0830.9,4.99,0.00,29.3,28.2,00.0,38.1,31.2,32.0,0000.0,0013.98,0005.08,0003.85
2022-06-30 06:04:00,,0830.9,5.00,0.00,29.3,28.2,00.0,38.1,31.2,32.3,0000.0,0013.34,0005.07,0003.87
2022-06-30 06:05:00,,0830.9,5.01,0.00,29.3,28.3,00.0,38.1,31.3,32.5,0000.0,0013.38,0005.06,0003.89
2022-06-30 06:06:00,,0830.8,5.00,0.00,29.3,28.3,00.0,38.1,31.3,32.0,0000.0,0013.71,0005.02,0003.91
2022-06-30 06:07:00,,0830.9,4.99,0.00,29.3,28.4,00.0,38.1,31.3,31.6,0000.0,0014.46,0005.06,0003.93
2022-06-30 06:08:00,,0830.8,5.00,0.00,29.4,28.4,00.0,38.1,31.3,31.3,0000.0,0014.94,0005.09,0003.94
2022-06-30 06:09:00,,0830.7,5.00,0.00,29.4,28.5,00.0,38.2,31.3,31.5,0000.0,0015.05,0005.09,0003.94
2022-06-30 06:10:00,,0830.8,5.00,0.00,29.4,28.5,00.0,38.2,31.3,31.1,0000.0,0015.28,0005.14,0003.96
2022-06-30 06:11:00,,0830.7,4.99,0.00,29.4,28.5,00.0,38.2,31.4,30.8,0000.0,0014.85,0005.13,0003.94
2022-06-30 06:12:00,,0830.6,5.00,0.00,29.4,28.5,00.0,38.2,31.4,30.1,0000.0,0014.77,0005.07,0003.92
2022-06-30 06:13:00,,0830.6,5.00,0.00,29.4,28.5,00.0,38.2,31.4,29.7,0000.0,0014.14,0005.00,0003.89
2022-06-30 06:14:00,,0830.6,4.99,0.00,29.5,28.6,00.0,38.2,31.4,29.7,0000.0,0012.80,0004.88,0003.86
2022-06-30 06:15:00,,0830.6,5.00,0.00,29.5,28.6,00.0,38.2,31.4,30.2,0000.0,0012.26,0004.85,0003.84
2022-06-30 06:16:00,,0830.5,5.00,0.00,29.5,28.6,00.0,38.3,31.4,29.8,0000.0,0012.17,0004.80,0003.83
2022-06-30 06:17:00,,0830.5,5.01,0.00,29.5,28.6,00.0,38.3,31.4,29.7,0000.0,0011.77,0004.77,0003.80
2022-06-30 06:18:00,,0830.4,4.99,0.00,29.5,28.6,00.0,38.3,31.4,29.0,0000.0,0011.08,0004.69,0003.77
2022-06-30 06:19:00,,0830.4,5.01,0.00,29.5,28.1,00.0,38.2,31.3,28.8,0000.0,0010.21,0004.61,0003.75
2022-06-30 06:20:00,,0830.4,5.01,0.00,29.4,27.4,00.0,38.2,31.1,28.8,0000.0,0010.02,0004.57,0003.74
2022-06-30 06:21:00,,0830.4,5.00,0.00,29.4,27.2,00.0,38.1,31.0,29.1,0000.0,0009.83,0004.56,0003.71
2022-06-30 06:22:00,,0830.3,5.00,0.00,29.3,27.1,00.0,38.1,31.0,29.2,0000.0,0009.56,0004.51,0003.69
2022-06-30 06:23:00,,0830.3,4.99,0.00,29.2,27.2,00.0,38.1,31.0,29.3,0000.0,0009.13,0004.48,0003.68
2022-06-30 06:24:00,,0830.3,4.99,0.00,29.2,27.3,00.0,38.1,31.0,29.3,0000.0,0009.25,0004.47,0003.68
2022-06-30 06:25:00,,0830.3,5.00,0.00,29.2,27.4,00.0,38.1,31.0,29.5,0000.0,0009.22,0004.51,0003.68
2022-06-30 06:26:00,,0830.2,5.00,0.00,29.2,27.6,00.0,38.1,31.0,29.6,0000.0,0008.91,0004.44,0003.66
2022-06-30 06:27:00,,0830.1,5.00,0.00,29.2,27.7,00.0,38.1,31.0,29.6,0000.0,0009.12,0004.44,0003.64
2022-06-30 06:28:00,,0830.1,5.00,0.00,29.2,27.8,00.0,38.1,31.0,29.6,0000.0,0009.08,0004.46,0003.63
2022-06-30 06:29:00,,0830.1,5.00,0.00,29.2,27.9,00.0,38.1,31.0,29.4,0000.0,0009.07,0004.46,0003.63
2022-06-30 06:30:00,,0830.1,5.01,0.00,29.2,27.9,00.0,38.1,31.0,29.4,0000.0,0009.13,0004.49,0003.63
2022-06-30 06:31:00,,0830.1,5.00,0.00,29.2,28.0,00.0,38.1,31.1,29.6,0000.0,0009.15,0004.47,0003.61
2022-06-30 06:32:00,,0830.0,5.00,0.00,29.2,28.1,00.0,38.1,31.1,29.3,0000.0,0009.08,0004.42,0003.59
2022-06-30 06:33:00,,0830.1,4.99,0.00,29.2,28.1,00.0,38.1,31.1,29.1,0000.0,0008.93,0004.36,0003.57
2022-06-30 06:34:00,,0830.1,5.00,0.00,29.3,28.2,00.0,38.1,31.2,29.4,0000.0,0008.86,0004.33,0003.55
2022-06-30 06:35:00,,0830.1,5.00,0.00,29.3,28.2,00.0,38.1,31.2,29.4,0000.0,0008.60,0004.31,0003.54
2022-06-30 06:36:00,,0830.1,5.00,0.00,29.3,28.3,00.0,38.1,31.2,29.4,0000.0,0008.25,0004.27,0003.53
2022-06-30 06:37:00,,0830.0,5.00,0.00,29.3,28.3,00.0,38.1,31.2,29.5,0000.0,0008.29,0004.26,0003.52
2022-06-30 06:38:00,,0829.8,5.00,0.00,29.3,28.4,00.0,38.1,31.3,29.4,0000.0,0007.96,0004.23,0003.50
2022-06-30 06:39:00,,0829.8,5.00,0.00,29.4,28.4,00.0,38.1,31.3,29.0,0000.0,0008.01,0004.19,0003.49
2022-06-30 06:40:00,,0829.6,5.01,0.00,29.4,28.4,00.0,38.2,31.3,29.0,0000.0,0007.90,0004.15,0003.47
2022-06-30 06:41:00,,0829.8,5.00,0.00,29.4,28.5,00.0,38.2,31.3,29.1,0000.0,0007.79,0004.10,0003.45
2022-06-30 06:42:00,,0829.6,4.99,0.00,29.4,28.5,00.0,38.2,31.3,28.9,0000.0,0007.86,0004.09,0003.46
2022-06-30 06:43:00,,0829.5,5.01,0.00,29.4,28.5,00.0,38.2,31.4,28.8,0000.0,0007.72,0004.05,0003.45
2022-06-30 06:44:00,,0829.5,4.99,0.00,29.5,28.6,00.0,38.2,31.4,28.8,0000.0,0007.78,0004.07,0003.46
2022-06-30 06:45:00,,0829.5,5.00,0.00,29.5,28.6,00.0,38.2,31.4,28.6,0000.0,0007.94,0004.08,0003.47
2022-06-30 06:46:00,,0829.5,5.01,0.00,29.5,28.6,00.0,38.3,31.4,28.6,0000.0,0008.64,0004.08,0003.46
2022-06-30 06:47:00,,0829.3,5.00,0.00,29.5,28.7,00.0,38.3,31.4,28.5,0000.0,0009.32,0004.10,0003.45
2022-06-30 06:48:00,,0829.2,5.00,0.00,29.5,28.7,00.0,38.3,31.5,28.4,0000.0,0009.29,0004.10,0003.45
2022-06-30 06:49:00,,0829.2,5.00,0.00,29.6,28.7,00.0,38.3,31.5,28.2,0000.0,0009.38,0004.09,0003.44
2022-06-30 06:50:00,,0829.2,5.00,0.00,29.6,28.7,00.0,38.3,31.5,28.0,0000.0,0009.20,0004.08,0003.44
2022-06-30 06:51:00,,0829.3,4.99,0.00,29.6,28.2,00.0,38.3,31.4,27.8,0000.0,0009.21,0004.08,0003.43
2022-06-30 06:52:00,,0829.2,5.00,0.00,29.5,27.5,00.0,38.3,31.2,27.7,0000.0,0009.19,0004.07,0003.43
2022-06-30 06:53:00,,0829.1,5.00,0.00,29.4,27.2,00.0,38.2,31.1,27.7,0000.0,0009.06,0004.06,0003.42
2022-06-30 06:54:00,,0829.1,5.01,0.00,29.4,27.2,00.0,38.2,31.0,27.4,0000.0,0009.05,0004.06,0003.40
2022-06-30 06:55:00,,0829.1,5.00,0.00,29.3,27.3,00.0,38.2,31.0,26.3,0000.0,0008.96,0004.01,0003.36
2022-06-30 06:56:00,,0829.0,4.99,0.00,29.3,27.4,00.0,38.2,31.1,26.1,0000.0,0008.80,0003.98,0003.31
2022-06-30 06:57:00,,0829.0,5.01,0.00,29.3,27.5,00.0,38.2,31.1,26.1,0000.0,0008.03,0003.92,0003.27
2022-06-30 06:58:00,,0829.1,4.99,0.00,29.3,27.6,00.0,38.2,31.1,26.0,0000.0,0007.11,0003.83,0003.23
2022-06-30 06:59:00,,0829.1,5.01,0.00,29.3,27.8,00.0,38.1,31.1,26.1,0000.0,0006.85,0003.75,0003.18
